• In Hungary
  • List of Countries
  • For 7 days
  • Water Temperature
  • Satellite Maps
  • Weather Map
  • News
  • Weather Widgets
  • user-avatar
    Login

    Hourly Weather Lidzhe

    Today, 19 September, Wednesday

    Time Temperature Precipitation Wind Pressure Humidity
    00:00 +14°C° 0 mm 2 mps 705 mmHg 80%
    01:00 +14°C° 0 mm 2 mps 705 mmHg 79%
    02:00 +14°C° 0 mm 2 mps 705 mmHg 78%
    03:00 +14°C° 0 mm 2 mps 704 mmHg 77%
    04:00 +14°C° 0 mm 2 mps 704 mmHg 76%
    05:00 +14°C° 0 mm 2 mps 704 mmHg 75%
    06:00 +14°C° 0 mm 2 mps 705 mmHg 74%
    07:00 +16°C° 0 mm 2 mps 705 mmHg 66%
    08:00 +18°C° 0 mm 2 mps 705 mmHg 58%
    09:00 +20°C° 0 mm 2 mps 706 mmHg 49%
    10:00 +20°C° 0 mm 2 mps 706 mmHg 48%
    11:00 +21°C° 0 mm 3 mps 706 mmHg 46%
    12:00 +22°C° 0 mm 3 mps 706 mmHg 44%
    13:00 +22°C° 0 mm 3 mps 705 mmHg 46%
    14:00 +21°C° 0 mm 3 mps 705 mmHg 47%
    15:00 +21°C° 0 mm 2 mps 705 mmHg 48%
    16:00 +19°C° 0 mm 2 mps 705 mmHg 53%
    17:00 +18°C° 0 mm 2 mps 705 mmHg 58%
    18:00 +16°C° 0 mm 2 mps 704 mmHg 63%
    19:00 +16°C° 0 mm 2 mps 705 mmHg 63%
    20:00 +15°C° 0 mm 2 mps 705 mmHg 64%
    21:00 +15°C° 0 mm 2 mps 705 mmHg 65%
    22:00 +15°C° 0 mm 2 mps 705 mmHg 64%
    23:00 +15°C° 0 mm 2 mps 705 mmHg 64%

    Tomorrow, 20 September, Thursday

    Time Temperature Precipitation Wind Pressure Humidity
    00:00 +15°C° 0 mm 2 mps 705 mmHg 63%
    01:00 +15°C° 0 mm 2 mps 705 mmHg 62%
    02:00 +15°C° 0 mm 2 mps 705 mmHg 61%
    03:00 +15°C° 0 mm 2 mps 705 mmHg 61%
    04:00 +14°C° 0 mm 2 mps 705 mmHg 60%
    05:00 +14°C° 0 mm 2 mps 705 mmHg 59%
    06:00 +14°C° 0 mm 2 mps 705 mmHg 58%
    07:00 +16°C° 0 mm 2 mps 706 mmHg 53%
    08:00 +18°C° 0 mm 3 mps 706 mmHg 49%
    09:00 +20°C° 0 mm 3 mps 707 mmHg 44%
    10:00 +21°C° 0 mm 3 mps 707 mmHg 44%
    11:00 +22°C° 0 mm 3 mps 707 mmHg 43%
    12:00 +22°C° 0 mm 3 mps 707 mmHg 43%
    13:00 +22°C° 0 mm 3 mps 706 mmHg 45%
    14:00 +22°C° 0 mm 3 mps 706 mmHg 47%
    15:00 +22°C° 0 mm 3 mps 706 mmHg 49%
    16:00 +20°C° 0 mm 2 mps 706 mmHg 57%
    17:00 +18°C° 0 mm 2 mps 705 mmHg 65%
    18:00 +16°C° 0 mm 1 mps 705 mmHg 72%
    19:00 +16°C° 0 mm 2 mps 705 mmHg 72%
    20:00 +16°C° 0 mm 2 mps 705 mmHg 72%
    21:00 +16°C° 0 mm 2 mps 705 mmHg 72%
    22:00 +16°C° 0 mm 2 mps 705 mmHg 72%
    23:00 +16°C° 0 mm 2 mps 705 mmHg 71%

    Day after tomorrow, 21 September, Friday

    Time Temperature Precipitation Wind Pressure Humidity
    00:00 +15°C° 0 mm 2 mps 705 mmHg 70%
    01:00 +15°C° 0 mm 2 mps 704 mmHg 69%
    02:00 +15°C° 0 mm 2 mps 704 mmHg 69%
    03:00 +15°C° 0 mm 2 mps 704 mmHg 68%
    04:00 +15°C° 0 mm 2 mps 704 mmHg 66%
    05:00 +15°C° 0 mm 2 mps 704 mmHg 65%
    06:00 +15°C° 0 mm 2 mps 704 mmHg 63%
    07:00 +18°C° 0 mm 2 mps 704 mmHg 56%
    08:00 +20°C° 0 mm 2 mps 705 mmHg 49%
    09:00 +24°C° 0 mm 2 mps 705 mmHg 42%
    10:00 +24°C° 0 mm 2 mps 705 mmHg 41%
    11:00 +25°C° 0 mm 2 mps 705 mmHg 40%
    12:00 +26°C° 0 mm 3 mps 705 mmHg 39%
    13:00 +26°C° 0 mm 3 mps 705 mmHg 42%
    14:00 +25°C° 0 mm 3 mps 704 mmHg 44%
    15:00 +25°C° 0 mm 3 mps 704 mmHg 47%
    16:00 +23°C° 0 mm 2 mps 704 mmHg 56%
    17:00 +21°C° 0 mm 1 mps 704 mmHg 65%
    18:00 +19°C° 0 mm 1 mps 704 mmHg 74%
    19:00 +18°C° 0 mm 1 mps 704 mmHg 74%
    20:00 +18°C° 0 mm 1 mps 705 mmHg 74%
    21:00 +18°C° 0 mm 1 mps 705 mmHg 74%
    22:00 +18°C° 0 mm 1 mps 705 mmHg 73%
    23:00 +18°C° 0 mm 1 mps 705 mmHg 72%

    22 September, Saturday

    Time Temperature Precipitation Wind Pressure Humidity
    00:00 +18°C° 0 mm 1 mps 705 mmHg 71%
    01:00 +16°C° 0 mm 1 mps 705 mmHg 71%
    02:00 +16°C° 0 mm 1 mps 705 mmHg 70%
    03:00 +16°C° 0 mm 1 mps 704 mmHg 69%
    04:00 +16°C° 0 mm 1 mps 705 mmHg 69%
    05:00 +16°C° 0 mm 1 mps 705 mmHg 68%
    06:00 +16°C° 0 mm 1 mps 705 mmHg 67%
    07:00 +19°C° 0 mm 1 mps 705 mmHg 61%
    08:00 +21°C° 0 mm 2 mps 705 mmHg 54%
    09:00 +24°C° 0 mm 2 mps 706 mmHg 48%
    10:00 +24°C° 0 mm 2 mps 706 mmHg 46%
    11:00 +25°C° 0 mm 3 mps 706 mmHg 45%
    12:00 +26°C° 0 mm 3 mps 705 mmHg 44%
    13:00 +25°C° 0.1 mm 3 mps 705 mmHg 46%
    14:00 +25°C° 0.1 mm 3 mps 705 mmHg 48%
    15:00 +25°C° 0.1 mm 3 mps 705 mmHg 50%
    16:00 +22°C° 0.1 mm 3 mps 704 mmHg 59%
    17:00 +20°C° 0.1 mm 2 mps 704 mmHg 67%
    18:00 +18°C° 0.1 mm 2 mps 704 mmHg 75%
    19:00 +18°C° 0.1 mm 2 mps 704 mmHg 76%
    20:00 +18°C° 0.1 mm 2 mps 705 mmHg 76%
    21:00 +18°C° 0.1 mm 2 mps 705 mmHg 77%
    22:00 +18°C° 0 mm 2 mps 705 mmHg 78%
    23:00 +17°C° 0 mm 2 mps 705 mmHg 78%

    23 September, Sunday

    Time Temperature Precipitation Wind Pressure Humidity
    00:00 +17°C° 0 mm 2 mps 704 mmHg 78%
    01:00 +17°C° 0 mm 2 mps 704 mmHg 79%
    02:00 +17°C° 0 mm 2 mps 704 mmHg 79%
    03:00 +16°C° 0 mm 2 mps 704 mmHg 79%
    04:00 +16°C° 0 mm 2 mps 704 mmHg 78%
    05:00 +16°C° 0 mm 2 mps 704 mmHg 76%
    06:00 +16°C° 0 mm 2 mps 704 mmHg 75%
    07:00 +18°C° 0 mm 3 mps 704 mmHg 68%
    08:00 +20°C° 0 mm 3 mps 704 mmHg 60%
    09:00 +24°C° 0 mm 3 mps 704 mmHg 52%
    10:00 +23°C° 0 mm 4 mps 704 mmHg 50%
    11:00 +25°C° 0 mm 4 mps 704 mmHg 48%
    12:00 +26°C° 0 mm 4 mps 704 mmHg 46%
    13:00 +26°C° 0.1 mm 4 mps 703 mmHg 46%
    14:00 +26°C° 0.1 mm 4 mps 703 mmHg 47%
    15:00 +25°C° 0.1 mm 4 mps 702 mmHg 47%
    16:00 +23°C° 0.1 mm 4 mps 702 mmHg 54%
    17:00 +21°C° 0.1 mm 3 mps 702 mmHg 61%
    18:00 +19°C° 0.1 mm 2 mps 702 mmHg 67%
    19:00 +19°C° 0.1 mm 2 mps 702 mmHg 66%
    20:00 +19°C° 0.1 mm 3 mps 702 mmHg 64%
    21:00 +18°C° 0.1 mm 3 mps 702 mmHg 62%
    22:00 +18°C° 0 mm 3 mps 702 mmHg 60%
    23:00 +18°C° 0 mm 3 mps 702 mmHg 58%

    24 September, Monday

    Time Temperature Precipitation Wind Pressure Humidity
    00:00 +18°C° 0 mm 3 mps 701 mmHg 56%
    01:00 +18°C° 0 mm 2 mps 701 mmHg 55%
    02:00 +18°C° 0 mm 2 mps 701 mmHg 54%
    03:00 +18°C° 0 mm 2 mps 701 mmHg 53%
    04:00 +18°C° 0 mm 2 mps 701 mmHg 52%
    05:00 +18°C° 0 mm 2 mps 701 mmHg 51%
    06:00 +19°C° 0 mm 1 mps 702 mmHg 51%
    07:00 +20°C° 0.1 mm 2 mps 702 mmHg 50%
    08:00 +23°C° 0.1 mm 2 mps 702 mmHg 50%
    09:00 +24°C° 0.1 mm 2 mps 703 mmHg 49%
    10:00 +25°C° 0.1 mm 3 mps 703 mmHg 49%
    11:00 +25°C° 0.1 mm 3 mps 703 mmHg 49%
    12:00 +26°C° 0.1 mm 3 mps 703 mmHg 49%
    13:00 +25°C° 0.3 mm 3 mps 703 mmHg 52%
    14:00 +25°C° 0.3 mm 3 mps 703 mmHg 54%
    15:00 +24°C° 0.3 mm 3 mps 703 mmHg 57%
    16:00 +23°C° 0.3 mm 2 mps 703 mmHg 64%
    17:00 +21°C° 0.3 mm 1 mps 703 mmHg 70%
    18:00 +20°C° 0.3 mm 1 mps 703 mmHg 77%
    19:00 +19°C° 0 mm 1 mps 703 mmHg 76%
    20:00 +19°C° 0 mm 1 mps 703 mmHg 75%
    21:00 +18°C° 0 mm 2 mps 703 mmHg 74%
    22:00 +18°C° 0 mm 2 mps 703 mmHg 72%
    23:00 +18°C° 0 mm 2 mps 703 mmHg 70%
    Show more